CZ-6A DEB, 55513

Orbit data source: Space-Track

CZ-6A DEB, 55513 is space debris in SSO originally from a launch on Fri, 11 Nov 2022 UTC launched from the Taiyaun Space Center, China (TSC). Debris objects in space refer to the collection of defunct objects orbiting the Earth. Examples of debris include non-operational satellites, rocket bodies, and fragments generated from explosions, collisions, or faulty payload assembly.

Loading next visibility...
Identifier
55513, 2022-151XK
Orbit
SSO
Country
Flag of CNCN / PRC
Related business
Manufacturer
SAST
Mission
Spacecraft
Bus & Motor
Unknown
Mass
Unknown
Launch date (UTC)
2022-11-11 (4 years ago)
Launch vehicle
Unknown
Launch site
Taiyaun Space Center, China (TSC)
Object type
Payload
Rocket body
Debris
Shape & HBR
Unknown shape, 0.1 m
Radar Cross Section
Small (<0.1 m²)

Expand to show TLE details & history
Last TLE update: 6 days ago

TLE from 6 days ago
0 CZ-6A DEB
1 55513U 22151XK  26167.75226208  .00000087  00000-0  75314-4 0  9993
2 55513  98.8494 164.5283 0051978 350.3834   9.6336 14.08482794181327
Epoch: 2026-06-16T18:03Z
TLE epoch observation values (Epoch: 2026-06-16T18:03:15.443Z)
Latitude
-0.00004°
Longitude
-11.30583°
Altitude
830.345 km
Speed
7.457 km/s
True Right ascension
10h 58m 06s
True Declination
0° 00' 00"
Sunlit
Object was in daylight at epoch
Visualization orbit readout
Latitude
Unknown
Longitude
Unknown
Altitude
Unknown
Speed
Unknown
Apparent Right ascension
Unknown
Apparent Declination
Unknown
Sunlit
N/A
Visualization observer readout
Local Sidereal Time
21:30:45
Azimuth
Unknown
Elevation
Unknown
Doppler factor
Unknown
Orbital elements
Apogee altitude
899.38 km
Perigee altitude
824.117 km
Semi-major axis
7,239.886 km
Eccentricity
0.0052
Inclination
98.8494°
RAAN
164.5283°
Arg. of periapsis
350.3834°
True anomaly
9.73392°
Mean anomaly
9.6336°
Eccentric anomaly
9.68369°
Mean motion
3.52327 °/min
Orbital period
102.18 mins
BSTAR
0.000075314
Loading maneuver chart data...
Computing Atmospheric mass density...
Loading historical data...
Loading historical data...
Loading historical data...
Loading historical data...
Loading historical data...
Loading historical data...
Loading historical data...

Documentation

Showing up to 5 results
|